Location: Newark
(46.1292°N, 1.0086°W)
Time: 05:25:28
(UTC+00:00)

Vanguard 3 - All Passes

Search period start: 15 November 2019 00:00
Search period end: 25 November 2019 00:00
Orbit: 508 x 3263 km, 33.3° (Epoch: 14 November)

Date Brightness Start Highest point End Pass type
(mag) Time Alt. Az. Time Alt. Az. Time Alt. Az.
15 Nov - 12:58:07 10° SSW 13:12:47 27° SE 13:25:42 10° E daylight
15 Nov - 15:09:21 10° SW 15:27:02 44° SSE 15:39:53 10° E daylight
15 Nov - 17:24:44 10° WSW 17:41:09 48° S 17:51:27 10° ESE visible
15 Nov - 19:41:54 10° W 19:53:29 31° SSW 20:00:53 10° SSE visible
16 Nov - 11:46:10 10° S 11:57:22 18° SE 12:08:10 10° ESE daylight
16 Nov - 13:53:59 10° SW 14:11:06 38° SSE 14:25:09 10° E daylight
16 Nov - 16:07:46 10° WSW 16:25:40 50° S 16:37:49 10° ESE daylight
16 Nov - 18:24:18 10° W 18:39:11 42° SSW 18:48:27 10° SE visible
16 Nov - 20:42:40 10° W 20:50:21 19° SW 20:55:58 10° S visible
17 Nov - 12:39:52 10° SSW 12:55:16 30° SSE 13:09:25 10° E daylight
17 Nov - 14:51:28 10° SW 15:09:43 47° SSE 15:23:37 10° E daylight
17 Nov - 17:06:55 10° WSW 17:24:09 49° S 17:35:20 10° ESE visible
17 Nov - 19:24:19 10° W 19:36:40 31° SSW 19:44:44 10° SSE visible
18 Nov - 11:27:29 10° S 11:39:47 21° SE 11:52:07 10° E daylight
18 Nov - 13:36:06 10° SW 13:53:37 41° SSE 14:08:42 10° E daylight
18 Nov - 15:49:59 10° WSW 16:08:27 52° S 16:21:35 10° ESE daylight
18 Nov - 18:06:33 10° W 18:22:14 42° SSW 18:32:19 10° SE visible
18 Nov - 20:25:24 10° W 20:33:30 18° SW 20:39:31 10° S visible
19 Nov - 10:19:06 10° SSE 10:24:51 12° SE 10:30:47 10° ESE daylight
19 Nov - 12:21:55 10° SSW 12:37:41 33° SSE 12:52:54 10° E daylight
19 Nov - 14:33:44 10° SW 14:52:19 50° S 15:07:12 10° E daylight
19 Nov - 16:49:10 10° WSW 17:07:01 50° SSW 17:19:06 10° ESE visible
19 Nov - 19:06:42 10° W 19:19:43 30° SW 19:28:27 10° SSE visible
20 Nov - 11:09:17 10° S 11:22:10 24° SE 11:35:41 10° E daylight
20 Nov - 13:18:26 10° SW 13:36:04 44° SSE 13:52:08 10° E daylight
20 Nov - 15:32:19 10° WSW 15:51:08 53° S 16:05:13 10° ESE daylight
20 Nov - 17:48:50 10° W 18:05:09 42° SSW 18:16:02 10° SE visible
20 Nov - 20:08:08 10° W 20:16:31 18° SW 20:22:54 10° S visible
21 Nov - 09:59:32 10° SSE 10:07:17 14° SE 10:15:34 10° ESE daylight
21 Nov - 12:04:15 10° SSW 12:20:02 36° SSE 12:36:09 10° E daylight
21 Nov - 14:16:11 10° WSW 14:34:50 52° S 14:50:40 10° ESE daylight
21 Nov - 16:31:30 10° W 16:49:47 50° SSW 17:02:45 10° SE visible
21 Nov - 18:49:06 10° W 19:02:38 30° SW 19:12:01 10° SSE visible
22 Nov - 10:51:28 10° S 11:04:31 26° SE 11:18:57 10° E daylight
22 Nov - 13:00:59 10° SW 13:18:27 47° SSE 13:35:22 10° E daylight
22 Nov - 15:14:46 10° WSW 15:33:43 54° S 15:48:44 10° ESE daylight
22 Nov - 17:31:11 10° W 17:47:56 41° SSW 17:59:37 10° SE visible
22 Nov - 19:50:58 10° W 19:59:25 17° SW 20:06:04 10° SSW visible
23 Nov - 09:40:59 10° SSE 09:49:42 16° SE 09:59:27 10° E daylight
23 Nov - 11:46:51 10° SSW 12:02:22 39° SSE 12:19:15 10° E daylight
23 Nov - 13:58:49 10° WSW 14:17:17 53° S 14:33:59 10° ESE daylight
23 Nov - 16:13:56 10° W 16:32:25 49° SSW 16:46:16 10° SE daylight
23 Nov - 18:31:34 10° W 18:45:24 29° SW 18:55:25 10° SSE visible
24 Nov - 10:33:59 10° SSW 10:46:53 29° SE 11:01:59 10° E daylight
24 Nov - 12:43:45 10° SW 13:00:49 49° SSE 13:18:29 10° E daylight
24 Nov - 14:57:23 10° WSW 15:16:14 54° S 15:32:06 10° ESE daylight
24 Nov - 17:13:36 10° W 17:30:35 40° SSW 17:43:03 10° SE visible
24 Nov - 19:33:55 10° W 19:42:11 16° SW 19:48:56 10° SSW visible
